Weather History for Yakutat, AK

Change the Weather History Date:

Sunday, December 30, 2012

  Actual Average Record
Temperature  
Mean Temperature 38 °F 29 °F  
Max Temperature 40 °F 34 °F 47 °F (2005)
Min Temperature 35 °F 23 °F -24 °F (1964)
Degree Days  
Heating Degree Days 27 36  
Month to date heating degree days 1203 1060  
Since 1 July heating degree days 4340 3958  
Cooling Degree Days 0    
Month to date cooling degree days 0  
Year to date cooling degree days 0  
Moisture  
Dew Point 36 °F    
Average Humidity 0    
Maximum Humidity 0    
Minimum Humidity 0    
Precipitation  
Precipitation 1.65 in 0.51 in 1.89 in (1955)
Month to date precipitation 7.98 15.77  
Year to date precipitation 108.55 154.61  
Snow  
Snow 0.00 in 0.90 in 8.00 in (1953)
Month to date snowfall 27.2 22.4  
Since 1 July snowfall 53.1 43.1  
Snow Depth 13.00 in    
Sea Level Pressure  
Sea Level Pressure 29.70 in    
Wind  
Wind Speed 9 mph (ESE)    
Max Wind Speed 20 mph    
Max Gust Speed 32 mph    
Visibility 4 miles    
Events Rain    
T = Trace of Precipitation, MM = Missing Value Source: NWS Daily Summary

Daily Weather History Graph

Daily Weather History Graph

Search for Another Location

Airport:

Trip Planner

Search our weather history database for the weather conditions in past years. The results will help you decide how hot, cold, wet, or windy it might be!

Date:

Astronomy

Dec. 30, 2012 Rise Set
Actual Time 9:16 AM AKST 3:26 PM AKST
Civil Twilight 8:21 AM AKST 4:21 PM AKST
Nautical Twilight 7:26 AM AKST 5:17 PM AKST
Astronomical Twilight 6:35 AM AKST 6:07 PM AKST
Moon 6:53 PM AKST (12/30) 9:47 AM AKST (12/30)
Length of Visible Light 8h 00m
Length of Day
6h 09m
Waning Gibbous, 94% of the Moon is Illuminated
Dec 30
Waning Gibbous
Jan 4
Last Quarter
Jan 11
New
Jan 18
First Quarter
Jan 26
Full

Hourly Weather History & Observations

Time (AKST) Temp. Windchill Dew Point Humidity Pressure Visibility Wind Dir Wind Speed Gust Speed Precip Events Conditions
12:53 AM 39.0 °F 33.4 °F 37.0 °F 93% 29.74 in 5.0 mi East 8.1 mph - 0.15 in Rain Rain
1:53 AM 37.9 °F 29.6 °F 36.0 °F 93% 29.74 in 5.0 mi East 13.8 mph 25.3 mph 0.18 in Rain Rain
3:53 AM 37.9 °F 30.9 °F 36.0 °F 93% 29.73 in 6.0 mi East 10.4 mph - 0.14 in Rain Rain
4:53 AM 39.0 °F 33.4 °F 37.0 °F 93% 29.71 in 4.0 mi East 8.1 mph - 0.16 in Rain Light Rain
5:06 AM 39.2 °F 33.0 °F 37.4 °F 93% 29.70 in 2.5 mi East 9.2 mph 17.3 mph 0.01 in Rain Light Rain
5:15 AM 39.2 °F 32.5 °F 37.4 °F 93% 29.70 in 2.5 mi East 10.4 mph 16.1 mph 0.02 in Rain Light Rain
5:53 AM 37.9 °F 30.5 °F 37.0 °F 97% 29.69 in 2.5 mi East 11.5 mph 18.4 mph 0.07 in Rain Light Rain
5:59 AM 37.4 °F 29.8 °F 37.4 °F 100% 29.69 in 3.0 mi East 11.5 mph - 0.00 in Rain Light Rain
6:12 AM 39.2 °F 32.5 °F 37.4 °F 93% 29.69 in 6.0 mi East 10.4 mph - 0.01 in   Overcast
6:19 AM 39.2 °F 32.5 °F 37.4 °F 93% 29.69 in 9.0 mi East 10.4 mph 21.9 mph 0.01 in   Overcast
6:53 AM 39.0 °F 31.8 °F 37.0 °F 93% 29.68 in 9.0 mi East 11.5 mph 20.7 mph 0.01 in   Overcast
7:53 AM 39.0 °F 32.3 °F 37.0 °F 93% 29.68 in 4.0 mi East 10.4 mph 18.4 mph 0.01 in Rain Light Rain
8:03 AM 37.4 °F 30.3 °F 37.4 °F 100% 29.68 in 2.0 mi ESE 10.4 mph - 0.01 in Rain Light Rain
8:28 AM 37.4 °F 29.8 °F 37.4 °F 100% 29.67 in 2.5 mi East 11.5 mph - 0.05 in Rain Light Rain
8:42 AM 37.4 °F 29.8 °F 37.4 °F 100% 29.68 in 3.0 mi East 11.5 mph - 0.06 in Rain Light Rain
8:53 AM 37.9 °F 31.5 °F 37.0 °F 97% 29.69 in 3.0 mi East 9.2 mph 20.7 mph 0.06 in Rain Light Rain
9:02 AM 37.4 °F 29.8 °F 37.4 °F 100% 29.69 in 4.0 mi East 11.5 mph 23.0 mph 0.01 in Rain Light Rain
9:31 AM 37.4 °F 30.3 °F 37.4 °F 100% 29.68 in 4.0 mi East 10.4 mph 20.7 mph 0.05 in Rain Light Rain
9:53 AM 37.9 °F 30.5 °F 37.0 °F 97% 29.69 in 5.0 mi East 11.5 mph 19.6 mph 0.06 in Rain Light Rain
10:18 AM 37.4 °F 30.3 °F 37.4 °F 100% 29.69 in 2.0 mi ESE 10.4 mph 17.3 mph 0.04 in Rain Light Rain
10:29 AM 39.2 °F 32.5 °F 37.4 °F 93% 29.69 in 4.0 mi ESE 10.4 mph 17.3 mph 0.05 in Rain Light Rain
10:53 AM 39.0 °F 33.4 °F 37.0 °F 93% 29.69 in 5.0 mi ESE 8.1 mph 17.3 mph 0.08 in Rain Light Rain
11:53 AM 39.0 °F 32.3 °F 37.0 °F 93% 29.69 in 7.0 mi ESE 10.4 mph 21.9 mph 0.07 in Rain Light Rain
12:20 PM 39.2 °F 33.6 °F 37.4 °F 93% 29.68 in 6.0 mi East 8.1 mph 20.7 mph 0.06 in Rain Light Rain
12:53 PM 39.0 °F 31.8 °F 37.0 °F 93% 29.68 in 10.0 mi ESE 11.5 mph 20.7 mph 0.09 in Rain Light Rain
1:26 PM 39.2 °F 32.5 °F 37.4 °F 93% 29.68 in 10.0 mi ESE 10.4 mph 19.6 mph 0.01 in Rain Light Rain
1:53 PM 39.0 °F 32.3 °F 37.0 °F 93% 29.68 in 3.0 mi ESE 10.4 mph 21.9 mph 0.01 in Rain Light Rain
2:01 PM 39.2 °F 32.5 °F 37.4 °F 93% 29.68 in 2.5 mi ESE 10.4 mph 21.9 mph 0.00 in Rain Light Rain
2:11 PM 39.2 °F 33.6 °F 37.4 °F 93% 29.68 in 5.0 mi ESE 8.1 mph 17.3 mph 0.01 in Rain Light Rain
2:36 PM 39.2 °F 31.6 °F 37.4 °F 93% 29.68 in 6.0 mi SE 12.7 mph 19.6 mph 0.02 in Rain Light Rain
2:53 PM 39.0 °F 32.8 °F 37.0 °F 93% 29.68 in 3.0 mi ESE 9.2 mph 19.6 mph 0.04 in Rain Light Rain
3:53 PM 37.9 °F 31.5 °F 36.0 °F 93% 29.69 in 4.0 mi SE 9.2 mph 18.4 mph 0.07 in Rain Light Rain
4:53 PM 37.9 °F 30.5 °F 36.0 °F 93% 29.70 in 4.0 mi ESE 11.5 mph 24.2 mph 0.06 in Rain Rain
5:53 PM 37.0 °F 28.9 °F 35.1 °F 93% 29.70 in 5.0 mi ESE 12.7 mph 23.0 mph 0.09 in Rain Light Rain
6:15 PM 37.4 °F 32.1 °F 35.6 °F 93% 29.70 in 4.0 mi ESE 6.9 mph - 0.02 in Rain Light Rain
6:26 PM 37.4 °F 30.8 °F 35.6 °F 93% 29.70 in 4.0 mi ESE 9.2 mph 18.4 mph 0.03 in Rain Light Rain
6:53 PM 37.0 °F 31.6 °F 36.0 °F 96% 29.71 in 3.0 mi ESE 6.9 mph 16.1 mph 0.03 in   Overcast
7:00 PM 37.4 °F 30.8 °F 35.6 °F 93% 29.70 in 2.5 mi ESE 9.2 mph - 0.00 in   Overcast
7:13 PM 37.4 °F 33.8 °F 35.6 °F 93% 29.71 in 3.0 mi East 4.6 mph - 0.00 in   Overcast
7:37 PM 35.6 °F 30.7 °F 35.6 °F 100% 29.70 in 2.0 mi East 5.8 mph - 0.01 in   Overcast
7:53 PM 36.0 °F 30.3 °F 36.0 °F 100% 29.71 in 3.0 mi East 6.9 mph - 0.02 in Rain Light Rain
8:50 PM 35.6 °F 30.7 °F 35.6 °F 100% 29.71 in 2.5 mi ESE 5.8 mph - 0.02 in Rain Light Rain
8:53 PM 35.1 °F 30.1 °F 35.1 °F 100% 29.71 in 2.5 mi ESE 5.8 mph - 0.03 in Rain Light Rain
9:02 PM 35.6 °F 32.8 °F 35.6 °F 100% 29.71 in 3.0 mi ESE 3.5 mph - 0.00 in   Overcast
9:21 PM 35.6 °F 31.7 °F 35.6 °F 100% 29.71 in 2.0 mi ESE 4.6 mph - 0.01 in   Overcast
9:53 PM 35.1 °F 32.2 °F 35.1 °F 100% 29.72 in 2.0 mi Variable 3.5 mph - 0.01 in Rain Light Rain
10:29 PM 35.6 °F 32.8 °F 35.6 °F 100% 29.72 in 3.0 mi Variable 3.5 mph - 0.01 in   Overcast
10:38 PM 35.6 °F 30.7 °F 35.6 °F 100% 29.73 in 2.0 mi East 5.8 mph - 0.01 in   Overcast
10:53 PM 36.0 °F 33.3 °F 35.1 °F 97% 29.73 in 2.5 mi East 3.5 mph - 0.01 in   Overcast
11:12 PM 35.6 °F 32.8 °F 35.6 °F 100% 29.74 in 2.0 mi ESE 3.5 mph - N/A   Overcast
11:38 PM 35.6 °F - 35.6 °F 100% 29.74 in 1.8 mi Calm Calm - 0.01 in   Overcast
11:53 PM 36.0 °F 33.3 °F 35.1 °F 97% 29.75 in 1.8 mi ENE 3.5 mph - 0.01 in   Overcast